Terug naar catalogus

STARLINK-34616

ActiefCommunicatieVLEO
NORAD 66320·PAYLOAD·🇺🇸 United States

Gelanceerd Nov 6, 2025 vanaf Cape Canaveral Space Force Station

Loading…

Volgende Passages (komende 24 uur)

TLE

VersSource: CelesTrak SupGP

Epoch: Sep 15, 2026, 03:18 UTC

1 66320C 25253B   26258.13798611 -.00005587  00000+0 -20247-3 0  2585
2 66320  43.0014 222.2191 0001122 263.6498  59.2066 15.27566350    13

Volg STARLINK-34616 in realtime met AllMySat

Download on the App Store